Starlink 31809

operational
NORAD ID: 59743 Int'l Des: 2024-090 Owner: SPXS Country: US Constellation: starlink
LEOCIRCULAR

关于 Starlink 31809

正在加载描述...

实时位置

正在加载3D地球...

即将过境

高度历史

Altitude vs Time

uPlot chart will show altitude changes over time

两行轨道根数

1 59743U 24090P 25354.13162355 .00000468 00000-0 26537-4 0 9993
2 59743 43.0019 265.8008 0001146 269.2295 90.8425 15.27574309 91352
Epoch: Dec 20, 2025 • Age: 26 hours

当前状态

高度 486.4 km
速度 7.63 km/s
星下点 40.31°N, 146.14°W
发射日期 May 13, 2024
运行时间 1.6 years
类型 internet

技术详情

分类 Payload
质量 730.00 kg
干质量 700.00 kg
总质量 730.00 kg
长度 0.30 m
直径 4.10 m
跨度 29.00 m
形状 Box + pan
制造商 SPXS
平台类型 Starlink V2M
阶段状态 In Orbit
所有者/国家 SPXS/US

大型星座

Loading constellations...